STARLINK-1530 (46049 NORAD) Tracking and Keplerian Element Data

This shows tracking and keplerian element data for the satellite.

Feedback or suggestion? Click here.




ElementValue
Catalog46049
NameSTARLINK-1530
Epoch Orbit1908
Epoch Day336.93494729
Epoch Year2020
RAAN112.664
Inclination53.0372
Eccentricity0.0001848
Argument of Perigee49.6911
Mean Anonmoly310.4239
Mean Motion15.06349754
Decay Rate-8.506E-05
L11 46049U 20055Y 20336.93494729 -.00008506 00000-0 -55354-3 0 9992
L22 46049 53.0372 112.6640 0001848 49.6911 310.4239 15.06349754 19080

Live tracking and technical data element details for STARLINK-1530 (NORAD 46049). STARLINK-1530 can be tracked NOW for your location showing map with azimuth and elevation plus other details from your city location.

Track the satellite on the map from your city or location and see movement details for azimuth, elevation, latitude, longitude, range, height, and movement on the map or in text.







IsCatalogInMostPopularTable: catalog: 46049, numindb: 23
Update: records affected: 1



GetName: 46049 STARLINK-1530

Hit Count: updated at: Wed, 02 Dec 2020 18:18:47 GMT